Cloud_Cover
0 0 0 0 0 0 0 0 0 0 0 0 0 0 0 0 0 0 0 0 0 0 0 0 0 0 0 0 0 0 0 0 0 0 0 0 0 0 0 3 5 5 10
0 0 0 0 0 0 0 0 0 0 0 0 0 0 0 0 0 0 0 0 0 0 0 0 0 0 0 0 0 0 0 0 0 0 0 0 0 1 5 5 5 1 3
0 0 0 0 0 0 0 0 0 0 0 0 0 0 0 0 0 0 0 0 0 0 0 0 0 0 0 0 0 0 0 0 0 1 0 0 0 0 2 5 4 5 5
2 0 0 0 0 0 0 0 0 0 0 0 0 4 0 0 0 0 0 0 0 0 0 0 0 0 0 0 0 0 0 0 0 0 1 1 1 1 0 0 0 0 1
46 74 0 0 0 0 0 0 0 0 0 0 0 0 0 0 0 0 0 0 0 0 0 0 0 0 0 0 0 0 0 0 0 5 6 7 4 4 5 4 0 2 0
100 5 1 0 0 0 0 0 0 0 0 0 0 0 0 0 0 0 0 0 0 0 0 0 0 0 0 0 0 0 0 0 0 15 4 5 5 5 10 5 5 0 5
100 100 100 76 58 0 0 0 0 0 0 0 0 0 0 0 0 0 0 0 0 0 0 0 0 0 0 0 0 0 0 0 0 0 0 5 5 5 5 3 1 1 5
100 100 100 100 100 100 40 1 0 0 0 0 0 0 0 0 0 0 0 0 0 0 0 0 0 0 0 0 0 0 0 3 0 0 1 32 5 19 26 2 5 5 12
100 100 100 100 100 100 100 40 0 0 0 0 0 0 0 0 0 0 0 0 0 0 0 0 0 0 0 0 0 0 0 2 0 2 5 7 28 24 42 11 6 68 18
100 100 100 100 100 100 30 100 0 0 0 0 0 0 0 0 0 0 14 0 0 0 0 0 0 0 0 0 0 0 0 0 0 0 0 5 22 67 86 5 0 30 27
100 96 100 100 100 100 100 68 4 0 0 0 0 0 0 0 0 0 16 0 0 0 0 0 0 0 4 6 0 0 0 0 0 0 0 5 4 10 14 22 4 2 48
87 100 100 100 100 100 99 62 4 0 0 0 0 0 0 0 0 28 21 34 0 0 0 0 0 0 0 8 11 0 0 8 1 3 12 4 6 5 0 1 6 8 43
100 100 100 100 100 100 100 100 6 2 0 0 1 0 0 0 0 60 52 35 11 0 0 0 0 0 0 18 0 0 20 18 0 4 4 5 0 5 6 3 43 94 100
100 100 100 100 100 100 100 100 83 98 6 4 21 14 6 5 0 0 25 65 77 42 0 0 0 2 4 17 28 6 1 7 7 2 5 6 75 97 66 21 86 100 100
100 100 100 100 100 100 100 100 66 90 28 0 0 0 1 0 0 0 0 0 1 26 0 24 29 18 1 4 13 10 14 18 18 0 0 5 5 76 100 92 84 98 100
100 100 95 100 100 100 100 100 100 96 29 2 0 0 0 0 0 0 1 97 97 97 79 58 56 41 33 13 9 2 5 14 0 5 31 26 40 71 41 100 100 100 88
36 53 77 98 100 100 100 100 100 100 100 100 98 57 31 0 99 82 64 34 100 97 32 22 20 26 9 5 58 49 5 48 100 50 10 18 97 76 98 100 100 100 95
4 11 36 52 51 87 100 100 100 90 5 5 87 78 99 100 100 100 100 90 68 99 57 84 65 80 99 73 99 85 99 100 65 34 33 15 24 32 63 100 100 100 100
5 16 9 48 25 42 93 100 93 64 22 3 63 96 100 100 100 100 100 73 100 100 100 100 100 100 92 100 100 100 96 60 100 22 21 24 15 28 53 72 100 100 100
3 4 52 29 36 29 100 100 88 79 33 34 28 13 100 100 100 100 100 100 100 100 100 100 100 100 100 100 100 100 100 83 94 100 98 61 48 28 33 31 100 100 100
3 9 100 97 100 100 60 100 100 100 100 100 100 98 100 96 98 88 100 100 100 100 100 100 89 82 99 8 98 48 100 82 63 93 100 89 38 44 30 19 54 97 65
47 2 47 99 100 100 96 63 100 100 100 100 100 100 100 100 100 100 100 100 100 100 100 100 100 53 80 58 97 100 100 72 90 25 100 100 96 62 82 33 26 27 100
5 4 11 35 100 99 77 87 90 100 100 100 100 100 100 98 94 98 100 100 100 100 100 100 94 82 100 100 100 85 100 95 94 86 85 100 100 96 80 32 26 35 43
80 76 86 44 85 100 100 100 89 100 100 100 100 100 98 89 93 99 100 100 100 100 100 100 100 100 100 100 100 17 34 98 100 98 100 100 100 97 96 99 52 28 99
100 100 100 100 100 100 100 100 100 100 100 100 99 100 100 100 100 100 100 100 100 100 100 100 100 100 100 100 100 50 100 95 91 70 94 100 100 100 89 61 90 70 54
100 100 100 100 100 100 100 100 100 100 100 100 100 100 100 100 100 100 100 100 100 100 100 100 100 100 100 100 99 100 100 96 100 100 100 100 100 100 100 100 52 85 100